QPF
0.00 0.00 0.00 0.00 0.00 0.00 0.00 0.00 0.00 0.00 0.00 0.00 0.00 0.00 0.00 0.00 0.00 0.00 0.00 0.00 0.00 0.00 0.00 0.00 0.00 0.00 0.00 0.00 0.00 0.00 0.00 0.00 0.00 0.00 0.00 0.00 0.00 0.00 0.00 0.00 0.00 0.00 0.00
0.00 0.00 0.00 0.00 0.00 0.00 0.00 0.00 0.00 0.00 0.00 0.00 0.00 0.00 0.00 0.00 0.00 0.00 0.00 0.00 0.00 0.00 0.00 0.00 0.00 0.00 0.00 0.00 0.00 0.00 0.00 0.00 0.00 0.00 0.00 0.00 0.00 0.00 0.00 0.00 0.00 0.00 0.00
0.00 0.00 0.00 0.00 0.00 0.00 0.00 0.00 0.00 0.00 0.00 0.00 0.00 0.00 0.00 0.00 0.00 0.00 0.00 0.00 0.00 0.00 0.00 0.00 0.00 0.00 0.00 0.00 0.00 0.00 0.00 0.00 0.00 0.00 0.00 0.00 0.00 0.00 0.00 0.00 0.00 0.00 0.00
0.00 0.00 0.00 0.00 0.00 0.00 0.00 0.00 0.00 0.00 0.00 0.00 0.00 0.00 0.00 0.00 0.00 0.00 0.00 0.00 0.00 0.00 0.00 0.00 0.00 0.00 0.00 0.00 0.00 0.00 0.00 0.00 0.00 0.00 0.00 0.00 0.00 0.00 0.00 0.00 0.00 0.00 0.00
0.00 0.00 0.00 0.00 0.00 0.00 0.00 0.00 0.00 0.00 0.00 0.00 0.00 0.00 0.00 0.00 0.00 0.00 0.00 0.00 0.00 0.00 0.00 0.00 0.00 0.00 0.00 0.00 0.00 0.00 0.00 0.00 0.00 0.00 0.00 0.00 0.00 0.00 0.00 0.00 0.00 0.00 0.02
0.00 0.00 0.00 0.00 0.00 0.00 0.00 0.00 0.00 0.00 0.00 0.00 0.00 0.00 0.00 0.00 0.00 0.00 0.00 0.00 0.00 0.00 0.00 0.00 0.00 0.00 0.00 0.00 0.00 0.00 0.00 0.00 0.00 0.00 0.00 0.00 0.00 0.00 0.00 0.00 0.00 0.00 0.04
0.00 0.00 0.00 0.00 0.00 0.00 0.00 0.00 0.00 0.00 0.00 0.00 0.00 0.00 0.00 0.00 0.00 0.00 0.00 0.00 0.01 0.00 0.00 0.00 0.00 0.00 0.00 0.00 0.00 0.00 0.00 0.00 0.00 0.00 0.00 0.00 0.00 0.00 0.00 0.00 0.00 0.00 0.01
0.00 0.00 0.00 0.00 0.00 0.00 0.00 0.00 0.00 0.00 0.00 0.00 0.00 0.00 0.00 0.00 0.00 0.00 0.00 0.01 0.00 0.00 0.00 0.00 0.00 0.00 0.00 0.00 0.00 0.00 0.00 0.00 0.00 0.00 0.00 0.00 0.00 0.00 0.00 0.00 0.00 0.00 0.00
0.00 0.00 0.00 0.00 0.00 0.00 0.00 0.00 0.00 0.00 0.00 0.00 0.00 0.00 0.00 0.00 0.00 0.00 0.00 0.00 0.00 0.00 0.00 0.00 0.00 0.00 0.00 0.00 0.00 0.00 0.00 0.00 0.00 0.00 0.00 0.00 0.00 0.00 0.00 0.00 0.00 0.00 0.00
0.00 0.00 0.00 0.00 0.00 0.00 0.00 0.00 0.00 0.00 0.00 0.00 0.00 0.00 0.00 0.00 0.00 0.00 0.00 0.00 0.00 0.00 0.00 0.00 0.00 0.00 0.00 0.00 0.00 0.00 0.00 0.00 0.00 0.00 0.00 0.00 0.00 0.00 0.00 0.00 0.00 0.00 0.00
0.02 0.00 0.00 0.00 0.00 0.00 0.00 0.00 0.00 0.00 0.00 0.00 0.00 0.00 0.00 0.00 0.00 0.00 0.00 0.00 0.00 0.00 0.00 0.00 0.00 0.00 0.00 0.00 0.00 0.00 0.00 0.00 0.00 0.00 0.00 0.00 0.00 0.00 0.00 0.00 0.00 0.00 0.00
0.00 0.00 0.00 0.00 0.00 0.00 0.00 0.00 0.00 0.00 0.00 0.00 0.00 0.00 0.00 0.00 0.00 0.00 0.00 0.00 0.00 0.00 0.00 0.00 0.00 0.00 0.00 0.00 0.00 0.00 0.00 0.00 0.00 0.00 0.00 0.00 0.00 0.00 0.00 0.00 0.00 0.00 0.00
0.01 0.00 0.00 0.00 0.00 0.00 0.00 0.00 0.00 0.00 0.00 0.00 0.00 0.00 0.00 0.00 0.00 0.00 0.00 0.01 0.02 0.01 0.00 0.00 0.00 0.00 0.00 0.00 0.00 0.00 0.00 0.00 0.00 0.00 0.00 0.00 0.00 0.00 0.00 0.00 0.00 0.00 0.00
0.36 0.26 0.12 0.05 0.02 0.00 0.00 0.00 0.00 0.00 0.00 0.00 0.00 0.00 0.00 0.00 0.00 0.00 0.00 0.00 0.00 0.01 0.01 0.00 0.00 0.00 0.00 0.00 0.00 0.00 0.00 0.00 0.00 0.00 0.00 0.00 0.00 0.00 0.00 0.00 0.00 0.00 0.00
0.82 0.69 0.44 0.23 0.11 0.02 0.00 0.00 0.00 0.00 0.00 0.00 0.00 0.00 0.00 0.00 0.00 0.00 0.00 0.00 0.00 0.02 0.00 0.00 0.00 0.00 0.00 0.00 0.00 0.00 0.00 0.00 0.00 0.00 0.00 0.00 0.00 0.00 0.00 0.00 0.00 0.00 0.00
0.66 0.78 0.63 0.42 0.16 0.07 0.04 0.00 0.00 0.00 0.01 0.00 0.00 0.00 0.00 0.00 0.00 0.00 0.00 0.00 0.00 0.03 0.00 0.00 0.00 0.00 0.00 0.00 0.00 0.00 0.00 0.00 0.00 0.00 0.00 0.00 0.00 0.00 0.00 0.00 0.00 0.00 0.00
0.04 0.13 0.22 0.35 0.33 0.10 0.06 0.03 0.03 0.09 0.14 0.14 0.07 0.02 0.02 0.03 0.02 0.00 0.01 0.01 0.03 0.04 0.01 0.00 0.00 0.00 0.00 0.00 0.00 0.00 0.00 0.00 0.00 0.00 0.00 0.00 0.00 0.00 0.00 0.00 0.00 0.00 0.00
0.00 0.01 0.01 0.02 0.04 0.04 0.10 0.12 0.13 0.15 0.19 0.19 0.18 0.23 0.20 0.13 0.06 0.03 0.04 0.06 0.05 0.02 0.01 0.00 0.00 0.00 0.00 0.00 0.00 0.00 0.00 0.00 0.00 0.00 0.00 0.00 0.00 0.00 0.00 0.00 0.00 0.00 0.00
0.00 0.00 0.00 0.00 0.00 0.00 0.02 0.06 0.11 0.17 0.26 0.30 0.49 0.52 0.54 0.39 0.16 0.15 0.12 0.04 0.03 0.02 0.03 0.01 0.00 0.00 0.00 0.00 0.00 0.00 0.00 0.00 0.00 0.00 0.00 0.00 0.00 0.00 0.00 0.00 0.00 0.00 0.00
0.00 0.01 0.03 0.02 0.01 0.02 0.07 0.13 0.16 0.18 0.21 0.32 0.39 0.46 0.85 0.88 0.39 0.17 0.21 0.07 0.02 0.01 0.01 0.00 0.00 0.00 0.00 0.00 0.00 0.00 0.00 0.00 0.00 0.00 0.00 0.00 0.00 0.00 0.00 0.00 0.00 0.00 0.00
0.00 0.00 0.01 0.01 0.01 0.02 0.02 0.05 0.06 0.10 0.25 0.31 0.37 0.31 0.20 0.13 0.07 0.06 0.16 0.15 0.09 0.04 0.00 0.00 0.00 0.00 0.00 0.00 0.00 0.00 0.00 0.00 0.00 0.00 0.00 0.00 0.00 0.00 0.00 0.00 0.00 0.00 0.00
0.00 0.00 0.00 0.00 0.00 0.00 0.00 0.00 0.00 0.00 0.00 0.00 0.01 0.00 0.00 0.00 0.00 0.04 0.14 0.22 0.15 0.09 0.01 0.00 0.00 0.00 0.00 0.00 0.00 0.00 0.00 0.00 0.00 0.00 0.00 0.00 0.00 0.00 0.00 0.00 0.00 0.00 0.00
0.00 0.00 0.00 0.00 0.00 0.01 0.01 0.00 0.00 0.00 0.00 0.00 0.00 0.00 0.00 0.00 0.03 0.14 0.29 0.44 0.45 0.22 0.06 0.02 0.01 0.00 0.00 0.00 0.00 0.00 0.00 0.00 0.00 0.00 0.00 0.00 0.00 0.00 0.00 0.00 0.00 0.00 0.00
0.00 0.00 0.00 0.00 0.00 0.00 0.00 0.00 0.00 0.01 0.01 0.00 0.00 0.00 0.02 0.02 0.08 0.26 0.48 0.55 0.65 0.41 0.23 0.13 0.08 0.02 0.01 0.00 0.00 0.00 0.00 0.00 0.00 0.00 0.00 0.00 0.00 0.00 0.00 0.00 0.00 0.00 0.00
0.01 0.02 0.01 0.00 0.00 0.00 0.00 0.00 0.00 0.00 0.00 0.00 0.00 0.01 0.02 0.03 0.07 0.20 0.46 0.71 0.58 0.44 0.23 0.15 0.11 0.05 0.01 0.00 0.00 0.00 0.00 0.00 0.00 0.00 0.00 0.00 0.00 0.00 0.00 0.00 0.00 0.00 0.00
0.00 0.03 0.08 0.07 0.02 0.00 0.01 0.01 0.00 0.00 0.00 0.00 0.01 0.01 0.03 0.04 0.07 0.10 0.10 0.15 0.38 0.22 0.17 0.16 0.18 0.12 0.03 0.02 0.01 0.00 0.00 0.00 0.00 0.00 0.00 0.00 0.00 0.00 0.00 0.00 0.00 0.00 0.00
MSLP
1012.13 1012.74 1013.20 1013.82 1014.34 1014.67 1014.89 1014.93 1015.13 1015.37 1015.34 1015.34 1015.43 1015.49 1015.47 1015.40 1015.60 1015.86 1016.37 1016.78 1017.10 1017.58 1017.90 1018.16 1018.50 1018.55 1018.46 1018.26 1018.08 1017.94 1017.77 1017.75 1017.79 1018.13 1018.27 1018.17 1017.86 1017.68 1017.69 1017.97 1018.11 1018.10 1018.05
1011.20 1012.00 1012.58 1013.07 1013.90 1014.37 1014.44 1014.38 1014.58 1014.83 1014.98 1015.15 1015.25 1015.28 1015.31 1015.34 1015.52 1015.89 1016.40 1016.88 1017.29 1017.81 1018.24 1018.51 1018.77 1018.80 1018.82 1018.71 1018.62 1018.68 1018.46 1018.20 1018.01 1018.10 1018.39 1018.25 1018.17 1018.03 1017.73 1017.35 1017.46 1017.70 1017.98
1010.73 1011.38 1012.21 1012.49 1013.07 1013.54 1013.84 1013.83 1014.05 1014.26 1014.54 1014.75 1014.95 1015.04 1015.05 1015.20 1015.42 1015.90 1016.45 1017.10 1017.56 1017.89 1018.27 1018.50 1018.82 1018.82 1019.01 1019.14 1019.22 1019.10 1018.90 1018.68 1018.49 1018.51 1018.65 1018.75 1018.38 1017.92 1017.72 1017.99 1018.00 1017.92 1018.08
1010.28 1010.83 1011.59 1011.78 1012.22 1012.75 1013.13 1013.41 1013.53 1013.72 1014.04 1014.30 1014.54 1014.71 1014.82 1015.00 1015.39 1016.00 1016.59 1017.18 1017.70 1018.04 1018.40 1018.56 1018.73 1018.92 1019.16 1019.43 1019.49 1019.43 1019.36 1019.19 1019.16 1019.06 1019.03 1018.89 1018.69 1018.65 1018.70 1018.60 1018.34 1018.24 1018.44
1009.73 1010.38 1010.61 1010.92 1011.48 1012.04 1012.59 1012.86 1012.92 1013.16 1013.39 1013.80 1014.11 1014.40 1014.64 1014.87 1015.32 1015.98 1016.60 1017.09 1017.66 1018.22 1018.54 1018.79 1018.94 1019.10 1019.26 1019.40 1019.50 1019.69 1019.60 1019.56 1019.64 1019.64 1019.60 1019.52 1019.46 1019.31 1019.24 1019.03 1018.70 1018.53 1018.84
1009.05 1009.44 1009.89 1010.58 1011.06 1011.51 1011.98 1012.42 1012.49 1012.66 1012.90 1013.37 1013.72 1014.11 1014.45 1014.70 1015.14 1015.73 1016.30 1017.04 1017.64 1018.14 1018.66 1019.08 1019.22 1019.47 1019.57 1019.64 1019.78 1019.81 1019.77 1019.94 1020.09 1020.18 1020.51 1020.26 1020.06 1019.98 1019.64 1019.28 1019.00 1018.71 1018.87
1008.48 1009.09 1009.37 1009.97 1010.50 1010.96 1011.36 1012.02 1012.11 1012.26 1012.68 1012.96 1013.32 1013.76 1014.10 1014.53 1015.15 1015.68 1016.15 1016.92 1017.56 1018.14 1018.64 1019.14 1019.46 1019.75 1019.71 1019.76 1020.04 1020.15 1020.30 1020.48 1020.51 1020.57 1020.79 1020.62 1020.22 1019.96 1019.69 1019.39 1019.11 1019.02 1018.93
1008.16 1008.63 1009.07 1009.30 1009.96 1010.38 1010.96 1011.38 1011.59 1011.80 1012.29 1012.60 1012.83 1013.29 1013.86 1014.52 1015.08 1015.65 1016.16 1016.88 1017.60 1018.19 1018.60 1019.02 1019.32 1019.78 1020.00 1020.01 1020.30 1020.52 1020.56 1020.62 1020.89 1020.74 1020.78 1020.85 1020.44 1019.91 1019.74 1019.49 1019.26 1019.10 1019.03
1007.78 1008.16 1008.55 1008.98 1009.39 1009.85 1010.42 1010.60 1010.91 1011.36 1011.94 1012.16 1012.37 1013.06 1013.69 1014.58 1015.04 1015.55 1016.13 1016.92 1017.61 1018.18 1018.60 1019.04 1019.26 1019.68 1019.97 1020.16 1020.44 1020.84 1021.00 1021.07 1021.06 1021.05 1020.95 1021.02 1020.66 1020.21 1019.81 1019.52 1019.36 1018.98 1019.19
1007.47 1007.71 1008.00 1008.40 1008.79 1009.08 1009.49 1009.75 1010.18 1010.58 1011.33 1011.93 1012.24 1012.68 1013.32 1014.20 1015.01 1015.46 1015.94 1016.62 1017.54 1018.21 1018.80 1019.14 1019.38 1019.61 1019.90 1020.17 1020.49 1020.67 1020.80 1020.77 1020.98 1021.14 1021.22 1021.16 1021.02 1020.66 1020.40 1020.24 1020.16 1019.82 1019.62
1007.91 1007.64 1007.74 1007.78 1008.14 1008.30 1008.90 1009.26 1009.57 1009.97 1010.94 1011.53 1011.90 1012.48 1013.00 1013.86 1014.85 1015.29 1015.65 1016.15 1016.90 1017.86 1018.46 1018.96 1019.32 1019.61 1019.84 1020.11 1020.38 1020.53 1020.66 1020.78 1021.09 1021.20 1021.45 1021.52 1021.39 1021.02 1020.84 1020.86 1020.79 1020.43 1020.15
1008.30 1007.70 1007.62 1007.64 1007.56 1007.86 1008.38 1008.89 1009.36 1009.79 1010.50 1011.08 1011.68 1012.29 1013.06 1013.94 1014.62 1015.27 1015.58 1015.93 1016.62 1017.16 1017.91 1018.48 1018.78 1019.14 1019.52 1019.78 1020.12 1020.41 1020.99 1020.91 1021.25 1021.30 1021.45 1021.70 1021.71 1021.44 1021.46 1021.37 1021.33 1021.08 1020.72
1008.53 1007.76 1007.54 1007.36 1007.35 1007.39 1007.73 1008.38 1009.08 1009.62 1010.06 1010.63 1011.24 1012.02 1013.01 1013.89 1014.71 1015.36 1015.86 1016.23 1016.81 1017.04 1017.28 1017.64 1018.61 1019.12 1019.43 1019.63 1019.97 1020.16 1020.48 1020.98 1021.22 1021.26 1021.44 1021.79 1021.91 1021.79 1021.66 1021.58 1021.52 1021.61 1021.44
1008.64 1008.18 1007.64 1007.04 1007.16 1007.16 1007.42 1007.70 1008.32 1008.80 1009.53 1010.20 1010.81 1011.70 1012.66 1013.61 1014.36 1015.22 1016.01 1016.47 1016.75 1017.03 1017.63 1017.98 1018.21 1018.98 1019.48 1019.68 1020.03 1020.26 1020.33 1020.74 1021.09 1021.26 1021.41 1021.97 1022.08 1021.93 1021.96 1021.96 1022.01 1022.10 1022.18
1007.48 1007.35 1008.20 1007.04 1006.81 1006.98 1007.59 1008.05 1008.48 1008.45 1008.81 1009.40 1009.94 1010.62 1011.81 1012.77 1013.41 1013.92 1014.57 1015.63 1016.38 1016.90 1017.57 1018.54 1018.97 1018.96 1019.47 1019.75 1019.86 1020.12 1020.24 1020.48 1020.86 1021.31 1021.41 1021.80 1022.10 1022.09 1022.32 1022.43 1022.56 1022.58 1022.62
1009.73 1008.86 1008.62 1007.19 1006.52 1006.33 1007.44 1008.37 1009.10 1009.05 1008.89 1009.04 1009.14 1009.56 1010.52 1010.84 1011.98 1013.24 1014.09 1014.68 1015.56 1016.51 1017.32 1017.77 1018.70 1018.89 1018.69 1019.36 1019.69 1019.98 1020.22 1020.18 1020.60 1021.03 1021.40 1021.69 1022.05 1022.33 1022.52 1022.85 1023.02 1023.11 1023.13
1009.67 1009.16 1008.29 1006.78 1004.55 1006.34 1007.11 1007.94 1008.84 1010.17 1009.90 1010.10 1010.17 1010.30 1010.43 1010.68 1011.44 1012.42 1013.52 1014.43 1015.18 1016.08 1016.48 1017.34 1017.80 1018.45 1018.34 1018.76 1019.39 1019.55 1019.84 1020.09 1020.34 1020.89 1021.33 1021.74 1022.11 1022.55 1022.85 1023.06 1023.24 1023.54 1023.74
1009.40 1008.53 1007.92 1007.19 1006.79 1006.82 1007.08 1007.31 1007.86 1008.95 1010.24 1011.02 1011.40 1010.94 1010.92 1011.12 1011.92 1012.40 1013.22 1014.61 1016.39 1016.05 1016.44 1016.86 1017.27 1017.76 1018.35 1018.20 1019.12 1019.48 1019.82 1020.07 1020.24 1020.80 1021.25 1021.72 1022.15 1022.46 1023.00 1023.24 1023.43 1023.58 1024.00
1010.34 1009.61 1008.96 1008.42 1008.30 1007.98 1007.59 1007.87 1008.31 1008.92 1009.68 1010.54 1011.06 1011.44 1012.17 1011.68 1012.47 1013.36 1012.75 1013.06 1014.71 1015.36 1015.55 1016.54 1016.65 1017.43 1018.02 1018.03 1018.42 1019.00 1019.54 1019.86 1019.94 1020.47 1021.18 1021.64 1022.07 1022.41 1022.79 1023.26 1023.53 1023.94 1024.00
1010.61 1010.34 1009.77 1009.34 1008.76 1008.84 1009.08 1009.14 1009.08 1009.04 1009.40 1009.19 1010.91 1010.93 1011.36 1008.94 1012.06 1013.57 1013.89 1013.28 1013.80 1014.50 1014.84 1015.53 1016.18 1016.87 1017.23 1017.66 1017.66 1018.44 1018.98 1019.42 1019.90 1020.07 1020.71 1021.42 1021.97 1022.33 1022.73 1023.06 1023.39 1023.80 1024.14
1011.36 1010.70 1010.33 1010.33 1010.25 1010.07 1010.22 1009.76 1009.74 1009.82 1009.93 1009.70 1010.21 1010.82 1010.64 1007.32 1010.40 1011.90 1012.14 1012.12 1012.34 1013.15 1013.82 1014.69 1015.23 1016.08 1016.66 1017.24 1017.16 1017.82 1018.50 1018.84 1019.51 1019.90 1020.19 1020.74 1021.61 1022.14 1022.67 1023.10 1023.43 1023.68 1024.01
1012.32 1012.02 1011.64 1011.33 1011.42 1011.21 1010.82 1010.96 1010.74 1010.15 1009.67 1010.21 1010.98 1011.03 1010.12 1009.94 1011.32 1012.02 1012.14 1012.86 1013.30 1013.17 1012.07 1013.65 1014.44 1015.28 1016.04 1016.46 1016.57 1016.76 1017.55 1018.29 1018.59 1019.32 1020.20 1020.40 1020.84 1021.68 1022.56 1023.00 1023.31 1023.84 1024.16
1013.05 1012.81 1012.66 1012.44 1012.04 1011.79 1011.64 1011.78 1011.71 1011.86 1011.67 1011.22 1012.07 1011.87 1011.62 1011.97 1011.95 1012.16 1012.46 1013.23 1013.36 1014.08 1012.71 1013.30 1014.38 1014.80 1015.65 1016.04 1016.07 1016.18 1016.50 1017.17 1017.64 1018.23 1019.02 1019.87 1020.25 1020.71 1021.62 1022.62 1022.92 1023.37 1024.00
1013.87 1013.70 1013.48 1013.52 1013.15 1013.16 1013.30 1013.27 1013.15 1013.14 1013.30 1013.64 1013.61 1013.66 1013.74 1013.66 1013.64 1013.56 1013.89 1013.31 1013.59 1013.81 1013.62 1013.80 1014.33 1014.80 1015.26 1015.46 1015.82 1015.81 1016.04 1016.45 1017.11 1017.77 1018.26 1019.10 1019.71 1020.21 1020.50 1021.36 1022.52 1022.98 1023.20
1014.69 1014.71 1014.84 1014.87 1014.41 1014.54 1014.71 1014.79 1014.87 1015.01 1015.55 1015.66 1015.57 1015.45 1015.42 1015.08 1015.08 1014.99 1015.01 1014.66 1014.42 1013.94 1014.62 1015.16 1015.76 1016.17 1016.12 1016.37 1016.33 1016.34 1016.17 1016.23 1016.24 1016.83 1017.84 1018.30 1018.86 1019.47 1019.88 1020.26 1021.11 1022.14 1022.98
1015.42 1015.66 1016.00 1015.92 1015.91 1015.93 1015.96 1016.24 1016.51 1016.86 1016.84 1016.76 1016.78 1016.78 1016.60 1016.37 1016.35 1016.16 1016.02 1016.23 1016.22 1015.98 1015.92 1016.10 1016.62 1017.12 1017.45 1017.16 1017.29 1017.07 1016.61 1016.24 1016.25 1016.37 1016.85 1017.54 1018.30 1018.92 1019.38 1019.95 1020.52 1020.90 1021.64
Thickness
5814 5812 5810 5807 5804 5803 5802 5803 5801 5799 5800 5799 5797 5796 5796 5796 5793 5788 5781 5773 5766 5758 5750 5742 5732 5725 5719 5713 5706 5699 5691 5682 5673 5659 5648 5638 5632 5624 5615 5602 5594 5591 5587
5818 5813 5810 5809 5805 5802 5803 5806 5805 5802 5801 5800 5799 5798 5798 5797 5795 5789 5782 5774 5767 5758 5749 5741 5733 5726 5718 5711 5704 5694 5687 5680 5674 5662 5646 5636 5626 5616 5609 5604 5596 5587 5580
5819 5815 5810 5809 5808 5806 5804 5807 5807 5806 5803 5802 5801 5799 5800 5798 5795 5790 5782 5774 5766 5760 5752 5744 5735 5729 5719 5710 5701 5694 5686 5679 5670 5660 5645 5630 5621 5613 5605 5594 5586 5578 5570
5818 5816 5810 5811 5811 5809 5807 5808 5808 5809 5805 5803 5803 5801 5801 5799 5795 5789 5781 5774 5767 5761 5752 5746 5738 5730 5719 5709 5701 5692 5684 5676 5665 5655 5642 5630 5617 5605 5592 5583 5575 5567 5559
5819 5815 5815 5815 5813 5813 5808 5810 5810 5811 5809 5806 5804 5802 5801 5799 5795 5788 5781 5776 5768 5760 5752 5744 5736 5729 5720 5711 5702 5692 5683 5673 5662 5650 5637 5625 5610 5599 5587 5577 5568 5560 5552
5821 5821 5820 5815 5813 5812 5810 5809 5810 5811 5810 5807 5805 5803 5801 5800 5795 5790 5784 5776 5769 5761 5751 5743 5737 5729 5720 5711 5701 5692 5682 5670 5658 5646 5628 5618 5606 5594 5585 5576 5569 5564 5556
5823 5821 5821 5817 5814 5812 5811 5808 5808 5809 5808 5807 5805 5803 5802 5800 5794 5790 5785 5777 5769 5761 5751 5742 5736 5727 5720 5711 5700 5690 5678 5666 5657 5645 5631 5621 5610 5598 5588 5580 5572 5563 5556
5821 5820 5820 5819 5814 5813 5810 5809 5808 5809 5807 5806 5807 5805 5803 5798 5793 5790 5785 5776 5768 5760 5751 5744 5737 5727 5718 5711 5698 5686 5676 5666 5655 5646 5634 5622 5611 5602 5593 5583 5575 5566 5559
5820 5819 5818 5816 5814 5812 5809 5810 5810 5808 5805 5807 5808 5804 5801 5795 5792 5789 5784 5776 5767 5760 5752 5744 5738 5730 5720 5710 5699 5685 5673 5663 5655 5645 5635 5623 5614 5606 5598 5591 5582 5577 5565
5818 5818 5817 5816 5814 5813 5813 5813 5813 5814 5807 5805 5806 5804 5801 5796 5789 5787 5785 5778 5767 5759 5751 5744 5737 5731 5722 5711 5700 5688 5676 5667 5657 5648 5637 5626 5617 5608 5599 5591 5583 5576 5569
5811 5819 5818 5817 5815 5817 5815 5815 5815 5814 5807 5804 5805 5802 5801 5796 5788 5786 5785 5781 5772 5761 5754 5746 5739 5731 5724 5714 5703 5691 5680 5670 5659 5652 5640 5629 5619 5610 5601 5593 5586 5580 5573
5802 5811 5814 5814 5816 5817 5815 5813 5812 5812 5807 5805 5803 5799 5796 5791 5787 5782 5782 5780 5773 5767 5758 5750 5744 5736 5728 5719 5707 5694 5680 5672 5662 5655 5645 5633 5623 5614 5604 5596 5589 5581 5575
5791 5801 5806 5811 5815 5819 5818 5814 5810 5809 5807 5805 5802 5797 5790 5787 5782 5778 5776 5774 5768 5766 5763 5757 5745 5735 5728 5721 5710 5699 5687 5675 5665 5659 5650 5638 5628 5619 5610 5602 5596 5585 5578
5781 5785 5796 5805 5807 5814 5818 5819 5813 5810 5805 5802 5799 5793 5787 5782 5779 5774 5771 5769 5767 5764 5757 5752 5748 5737 5728 5722 5712 5701 5692 5679 5669 5662 5656 5642 5633 5625 5617 5609 5601 5592 5584
5780 5783 5779 5799 5805 5810 5809 5809 5808 5809 5807 5803 5802 5799 5787 5781 5779 5779 5778 5773 5767 5761 5755 5745 5740 5738 5729 5722 5715 5705 5695 5685 5675 5665 5660 5650 5640 5632 5623 5615 5607 5599 5592
5744 5742 5760 5780 5798 5807 5801 5797 5790 5793 5797 5801 5805 5805 5797 5796 5787 5780 5776 5774 5767 5758 5754 5750 5740 5737 5736 5724 5716 5707 5696 5690 5680 5671 5664 5657 5647 5638 5629 5620 5614 5607 5599
5746 5748 5753 5766 5785 5794 5797 5796 5793 5780 5781 5782 5783 5785 5786 5791 5784 5778 5772 5767 5762 5757 5756 5750 5745 5736 5736 5728 5717 5711 5702 5692 5685 5675 5668 5662 5653 5643 5635 5627 5621 5615 5608
5750 5759 5768 5777 5783 5789 5791 5796 5793 5785 5778 5772 5769 5776 5774 5774 5769 5771 5767 5758 5748 5750 5748 5747 5744 5738 5731 5732 5719 5711 5704 5694 5688 5677 5672 5665 5658 5650 5640 5634 5627 5624 5618
5736 5747 5757 5766 5769 5775 5781 5783 5782 5778 5773 5768 5766 5764 5755 5748 5746 5746 5761 5765 5753 5749 5748 5741 5743 5736 5729 5731 5725 5715 5706 5697 5692 5683 5673 5668 5662 5656 5648 5640 5634 5627 5625
5726 5732 5742 5749 5760 5761 5761 5762 5765 5767 5765 5759 5743 5757 5755 5750 5722 5729 5733 5744 5747 5744 5745 5742 5740 5735 5733 5729 5729 5718 5711 5703 5695 5689 5678 5670 5664 5659 5654 5647 5642 5636 5631
5714 5724 5730 5734 5738 5743 5745 5752 5752 5751 5751 5752 5756 5753 5754 5783 5749 5741 5738 5745 5748 5745 5742 5739 5739 5735 5732 5727 5730 5721 5712 5708 5698 5691 5685 5677 5668 5662 5657 5652 5645 5642 5638
5697 5705 5712 5718 5721 5725 5732 5733 5734 5742 5748 5745 5740 5742 5753 5759 5746 5731 5727 5723 5721 5730 5748 5739 5735 5732 5730 5729 5730 5726 5718 5710 5707 5696 5683 5680 5676 5668 5657 5654 5651 5643 5639
5680 5687 5692 5698 5706 5711 5716 5718 5719 5719 5722 5729 5723 5729 5734 5733 5726 5722 5720 5705 5704 5702 5721 5726 5722 5726 5724 5726 5727 5726 5723 5715 5710 5705 5696 5684 5680 5677 5668 5656 5654 5649 5642
5662 5668 5676 5679 5685 5689 5691 5695 5698 5697 5699 5699 5703 5705 5706 5706 5705 5706 5699 5700 5701 5694 5701 5710 5712 5714 5716 5721 5721 5723 5722 5717 5712 5704 5698 5691 5685 5679 5678 5670 5656 5652 5650
5643 5647 5651 5656 5665 5669 5669 5671 5673 5673 5670 5672 5676 5680 5684 5688 5688 5686 5682 5688 5692 5697 5688 5695 5695 5696 5702 5706 5711 5716 5719 5716 5715 5709 5697 5694 5690 5686 5682 5678 5670 5659 5651
5628 5630 5631 5636 5642 5648 5651 5652 5654 5652 5653 5654 5657 5661 5666 5671 5672 5671 5674 5674 5674 5676 5683 5684 5683 5684 5685 5692 5696 5702 5709 5712 5711 5709 5703 5695 5688 5686 5684 5679 5674 5669 5662